Regional Weather Roundup
Issued by NWS

Home | Current Version | Previous Version | Graphics & Text | Print | Product List | Glossary On
Versions: 1 2 3 4 5 6 7 8 9 10 11 12 13 14 15 16 17 18 19 20 21 22 23 24 25 26 27 28 29 30 31 32 33 34 35 36 37 38 39 40 41 42 43 44 45 46 47 48 49 50
250
ASUS43 KFSD 282010
RWRSD

WEATHER ROUNDUP FOR SOUTH DAKOTA
NATIONAL WEATHER SERVICE SIOUX FALLS SD
300 PM CDT THU APR 28 2016

NOTE: "FAIR" INDICATES FEW OR NO CLOUDS BELOW 12,000 FEET WITH NO
SIGNIFICANT WEATHER AND/OR OBSTRUCTIONS TO VISIBILITY.


SDZ001>005-009-010-012>017-282100-
NORTHWEST AND NORTH CENTRAL SOUTH DAKOTA

CITY           SKY/WX    TMP DP  RH WIND       PRES   REMARKS
BUFFALO          N/A     37  33  85 E7        30.03S
FAITH            N/A     38  32  79 N6        30.08S
MOBRIDGE       CLOUDY    52  36  54 NE9       30.04R
$$

SDZ012>016-024>037-041>051-057-063-072>074-282100-
SOUTHWEST AND SOUTH CENTRAL SOUTH DAKOTA

CITY           SKY/WX    TMP DP  RH WIND       PRES   REMARKS
RAPID CTY ARPT CLOUDY    40  33  76 N13       30.05S
PIERRE         CLOUDY    44  36  73 N13       30.05R
CUSTER         CLOUDY    34  27  75 E6        29.98S WCI  29
ELLSWORTH AFB  CLOUDY    39  36  87 N10       30.05
PHILIP         CLOUDY    40  35  83 N12       30.08R
PINE RIDGE     CLOUDY    42  34  73 N14       30.02F
WINNER         CLOUDY    42  36  79 NW13      30.04S
$$

SDZ004>011-016>023-039-040-282100-
NORTHEAST SOUTH DAKOTA

CITY           SKY/WX    TMP DP  RH WIND       PRES   REMARKS
ABERDEEN       CLOUDY    49  31  49 NE8       30.06R
WATERTOWN      LGT SNOW  36  33  89 NE9       30.04R FOG
BROOKINGS      CLOUDY    38  33  82 NE10      30.01R
SISSETON         N/A     47  32  56 SE10      30.05S
$$

SDZ017-020-022-023-036>040-048>070-282100-
SOUTHEAST SOUTH DAKOTA

CITY           SKY/WX    TMP DP  RH WIND       PRES   REMARKS
SIOUX FALLS    CLOUDY    43  37  79 N10       29.99R
HURON          CLOUDY    43  37  79 MISG      30.04R
CHAMBERLAIN    CLOUDY    44  39  82 NW7       30.04S
MITCHELL       CLOUDY    43  38  82 N10       30.03R
YANKTON        CLOUDY    43  37  81 NW9       30.01R
$$

ABBREVIATIONS USED IN REMARKS
   TC - TEMPERATURE IN CELSIUS
  WCI - WIND CHILL INDEX
   HX - HEAT INDEX
  VSB - VISIBILITY





USA.gov is the U.S. government's official web portal to all federal, state and local government web resources and services.